Regional Weather Roundup
Issued by NWS

Home | Current Version | Previous Version | Text Only | Print | Product List | Glossary On
Versions: 1 2 3 4 5 6 7 8 9 10 11 12 13 14 15 16 17 18 19 20 21 22 23 24 25 26 27 28 29 30 31 32 33 34 35 36 37 38 39 40 41 42 43 44 45 46 47 48 49 50
000
ASUS45 KTFX 280604
RWRMT
MONTANA HOURLY WEATHER ROUNDUP
NATIONAL WEATHER SERVICE GREAT FALLS MT
1104 PM MST THU NOV 27 2014

NOTE: "FAIR" INDICATES FEW OR NO CLOUDS BELOW 12000 FEET WITH NO
SIGNIFICANT WEATHER AND/OR OBSTRUCTIONS TO VISIBILITY.

* THESE STATIONS ARE NOT UNDER NWS QUALITY CONTROL. THEY DO NOT
   REPORT WEATHER SUCH AS PRECIPITATION OR FOG.

MTZ001>007-043-280700-
WEST OF THE DIVIDE
CITY           SKY/WX    TMP DP  RH WIND       PRES   REMARKS
KALISPELL      CLOUDY    46  37  71 SE9       29.69F
MISSOULA       CLOUDY    48  37  66 SW8       29.83R
BUTTE          CLOUDY    45  30  56 S15G21    29.90S
MULLAN PASS    LGT RAIN  36  36 100 SW14G28   29.77F VSB 1    WCI  27
* ESSEX        N/A       39  38  96 S1G6       N/A
* LINCOLN      N/A       35  35 100 NW3        N/A
* LOOKOUT PASS N/A       43  39  86 E12G24     N/A
* POLSON       N/A       46  37  71 S4G14      N/A
* RONAN APT    CLOUDY    46  39  77 SE6        N/A
* SEELEY LAKE  N/A       41  37  86 SE3        N/A
* THOMP F APT  CLOUDY    38  29  70 N2G9       N/A
* YAAK HILL    N/A       45  43  93 SE1G11     N/A
$$

MTZ008-052>055-280700-
SOUTHWEST MONTANA
CITY           SKY/WX    TMP DP  RH WIND       PRES   REMARKS
BOZEMAN        CLOUDY    46  34  63 S6        29.87F
DILLON         CLOUDY    46  30  54 S5        29.91F
* W YELLOWSTON CLOUDY    35  30  82 SE2        N/A
* ENNIS APT    CLOUDY   N/A N/A N/A N/A        N/A
* THREE FORKS  CLOUDY    48  48 100 N/A        N/A
* BOULDER HILL N/A       45  26  47 S24G35     N/A
* MONIDA PASS  N/A       35  31  85 SE13G18    N/A   WCI  26
* RAYNOLDS PAS N/A       39  21  48 S14        N/A   WCI  31
* WHITEHALL    N/A       50  34  54 SW17G39    N/A
* WISE RIVER   N/A       43  33  68 NW11G25    N/A
$$

MTZ009>010-012-014-046-048-049-054-280700-
EAST SLOPES AND CENTRAL MONTANA
CITY           SKY/WX    TMP DP  RH WIND       PRES   REMARKS
CUT BANK       PTCLDY    41  36  82 SW16      29.61F
GREAT FALLS    MOCLDY    45  34  65 SW13      29.65F
HELENA         CLOUDY    52  34  50 S13G18    29.76F
MALMSTROM AFB  MOCLDY    45  36  71 SW13      29.67F
* DEARBORN     N/A       56  34  44 S14G26     N/A
* EAST GLACIER N/A       40  37  89 NW12G18    N/A   WCI  33
* MONARCH      N/A       47  23  39 SW25G35    N/A
* PENDROY      N/A       44  36  74 W23G29     N/A
* ROGERS PASS  N/A       40  34  79 SE17G30    N/A   WCI  31
* SAINT MARY   N/A       41  39  93 S8G17      N/A
* SWEET GRASS  N/A       24  24 100 NE5        N/A   WCI  18
$$

MTZ011-013-016-021-035-040-045-047-050-051-280700-
NORTH CENTRAL MONTANA
CITY           SKY/WX    TMP DP  RH WIND       PRES   REMARKS
HAVRE          FOG       28  27  96 CALM      29.67F VSB 1/2
LEWISTOWN      MOCLDY    50  36  59 SW22G31   29.70F
* N BAR RANCH  CLEAR     52  32  47 W25       29.71F
* CHESTER      N/A       24  22  92 NE2        N/A
* DENTON       N/A       45  31  58 SW15G20    N/A
* GEYSER       N/A       48  28  46 SW11       N/A
* JUDITH GAP   N/A       47  31  54 W17        N/A
* LOMA         N/A       34  33  96 NE8        N/A   WCI  27
$$

MTZ017>020-022>027-061-062-280700-
NORTHEAST MONTANA
CITY           SKY/WX    TMP DP  RH WIND       PRES   REMARKS
GLASGOW        FOG       23  21  92 E15       29.69F WCI  10
GLENDIVE       CLOUDY    27  25  92 S7        29.74R WCI  19
JORDAN         PTCLDY    30  28  92 SE3       29.67S
SIDNEY         CLEAR     16  12  84 N9        29.78S WCI   5
WOLF POINT     CLOUDY    21  18  88 E13       29.75F WCI   8
* BEAVER HILL  N/A       36  31  82 S7         N/A   WCI  30
* CIRCLE       N/A       26  25  96 N3G8       N/A
* LINDSAY DVD  N/A       45  35  68 SW13       N/A
* NAVAJO       N/A       15  13  92 E4         N/A
* SACO         N/A       24  22  92 NE10       N/A   WCI  14
$$

MTZ028>042-056>058-280700-
SOUTHCENTRAL AND SOUTHEAST MONTANA
CITY           SKY/WX    TMP DP  RH WIND       PRES   REMARKS
BAKER          MOCLDY    41  30  65 SW8       29.73F
BILLINGS       CLOUDY    48  30  50 W10G22    29.77R
LIVINGSTON     CLOUDY    52  32  47 SW30G41   29.81R
MILES CITY     CLOUDY    39  32  76 S13       29.70F WCI  31
* LAUREL APT   MOCLDY    45  23  42 N/A        N/A
* ALZADA       N/A       38  29  70 E2G8       N/A
* HYSHAM       N/A       49  22  35 W4         N/A
* LAME DEER    N/A       46  28  50 S9         N/A
* REED POINT   N/A       53  29  40 SW3G14     N/A
* ROSCOE HILL  N/A       50  18  28 SW26G45    N/A
$$

REGIONAL REPORTS...DAKOTAS
CITY           SKY/WX    TMP DP  RH WIND       PRES   REMARKS
WILLISTON      CLOUDY    16  12  84 E5        29.81F WCI   8
DICKINSON      PTCLDY    18  16  92 CALM      29.73S
BEACH          FAIR      28  28 100 SE6       29.71F WCI  21
CROSBY         CLOUDY    14  10  84 E10       29.84S WCI   1
BISMARCK       PTCLDY    10   7  88 E9        29.89F WCI  -3
GRAND FORKS    N/A        9   3  76 SE14      30.10F WCI  -7
FARGO          HAZE      10   5  80 SE13      30.09F WCI  -5
BUFFALO SD     MOCLDY    27  21  78 SE7       29.69F WCI  19
RAPID CITY     MOCLDY    36  27  70 S3        29.84F
$$

REGIONAL REPORTS...WYOMING/IDAHO/WASHINGTON
CITY           SKY/WX    TMP DP  RH WIND       PRES   REMARKS
GILLETTE       MOCLDY    45  30  56 SW16      29.82F
SHERIDAN       CLOUDY    45  27  49 NE5       29.77F
CODY           PTCLDY    54  25  33 SE9G30    29.84S
YELLOWSTONE LA CLOUDY    34  28  79 CALM      30.09F
SALMON         CLOUDY    41  36  82 CALM      29.94F
MULLAN PASS    LGT RAIN  36  36 100 SW14G28   29.77S VSB 1    WCI  27
SAND POINT     CLOUDY    50  43  77 SW6       29.72S
SPOKANE        MOCLDY    48  43  83 SW20      29.73R
$$

REGIONAL REPORTS...ALBERTA
CITY           SKY/WX    TMP DP  RH WIND       PRES   REMARKS
LETHBRIDGE     FOG       23  23 100 NW8       29.64S WCI  14
$$

REGIONAL REPORTS...SASKATCHEWAN
CITY           SKY/WX    TMP DP  RH WIND       PRES   REMARKS
SWIFT CURRENT  LGT SNOW  16  14  92 E20       29.69F WCI  -1

$$



USA.gov is the U.S. government's official web portal to all federal, state and local government web resources and services.